Year,Month,Day,Hour,Minute,Value (Times are PST for temperature in C)
2012,08,16,00,02,22.20
2012,08,16,00,04,22.20
2012,08,16,00,05,22.10
2012,08,16,00,06,22.10
2012,08,16,00,07,22.10
2012,08,16,00,08,22.10
2012,08,16,00,10,22.10
2012,08,16,00,11,22.20
2012,08,16,00,12,22.20
2012,08,16,00,13,22.20
2012,08,16,00,15,22.30
2012,08,16,00,16,22.30
2012,08,16,00,17,22.30
2012,08,16,00,18,22.30
2012,08,16,00,19,22.30
2012,08,16,00,21,22.30
2012,08,16,00,22,22.30
2012,08,16,00,23,22.30
2012,08,16,00,24,22.30
2012,08,16,00,26,22.30
2012,08,16,00,27,22.20
2012,08,16,00,28,22.20
2012,08,16,00,29,22.20
2012,08,16,00,31,22.10
2012,08,16,00,32,21.90
2012,08,16,00,33,21.90
2012,08,16,00,34,21.80
2012,08,16,00,36,21.70
2012,08,16,00,37,21.60
2012,08,16,00,38,21.60
2012,08,16,00,40,21.60
2012,08,16,00,41,21.50
2012,08,16,00,42,21.50
2012,08,16,00,43,21.50
2012,08,16,00,45,21.50
2012,08,16,00,46,21.60
2012,08,16,00,47,21.60
2012,08,16,00,48,21.60
2012,08,16,00,50,21.50
2012,08,16,00,51,21.40
2012,08,16,00,52,21.40
2012,08,16,00,53,21.40
2012,08,16,00,54,21.30
2012,08,16,00,56,21.30
2012,08,16,00,57,21.30
2012,08,16,00,58,21.30
2012,08,16,00,59,21.30
2012,08,16,01,00,21.20
2012,08,16,01,02,21.20
2012,08,16,01,03,21.10
2012,08,16,01,04,21.10
2012,08,16,01,05,21.00
2012,08,16,01,06,21.00
2012,08,16,01,07,20.90
2012,08,16,01,08,20.90
2012,08,16,01,09,20.90
2012,08,16,01,10,20.80
2012,08,16,01,11,20.80
2012,08,16,01,12,20.80
2012,08,16,01,13,20.70
2012,08,16,01,15,20.70
2012,08,16,01,16,20.60
2012,08,16,01,17,20.50
2012,08,16,01,18,20.40
2012,08,16,01,20,20.40
2012,08,16,01,21,20.30
2012,08,16,01,22,20.30
2012,08,16,01,23,20.20
2012,08,16,01,25,20.20
2012,08,16,01,26,20.10
2012,08,16,01,27,20.00
2012,08,16,01,28,19.90
2012,08,16,01,30,19.80
2012,08,16,01,31,19.70
2012,08,16,01,32,19.60
2012,08,16,01,33,19.60
2012,08,16,01,34,19.50
2012,08,16,01,35,19.40
2012,08,16,01,36,19.40
2012,08,16,01,37,19.30
2012,08,16,01,39,19.20
2012,08,16,01,40,19.20
2012,08,16,01,41,19.10
2012,08,16,01,43,19.10
2012,08,16,01,44,19.10
2012,08,16,01,45,19.10
2012,08,16,01,46,19.10
2012,08,16,01,48,19.00
2012,08,16,01,49,19.00
2012,08,16,01,50,18.90
2012,08,16,01,51,18.90
2012,08,16,01,53,18.90
2012,08,16,01,54,18.80
2012,08,16,01,55,18.80
2012,08,16,01,57,18.80
2012,08,16,01,58,18.70
2012,08,16,01,59,18.70
2012,08,16,02,00,18.70
2012,08,16,02,01,18.70
2012,08,16,02,02,18.70
2012,08,16,02,03,18.70
2012,08,16,02,04,18.60
2012,08,16,02,06,18.60
2012,08,16,02,07,18.60
2012,08,16,02,08,18.50
2012,08,16,02,09,18.50
2012,08,16,02,10,18.50
2012,08,16,02,11,18.50
2012,08,16,02,12,18.50
2012,08,16,02,13,18.50
2012,08,16,02,14,18.60
2012,08,16,02,15,18.50
2012,08,16,02,16,18.50
2012,08,16,02,17,18.50
2012,08,16,02,18,18.50
2012,08,16,02,19,18.50
2012,08,16,02,20,18.50
2012,08,16,02,21,18.60
2012,08,16,02,22,18.50
2012,08,16,02,23,18.60
2012,08,16,02,24,18.60
2012,08,16,02,25,18.60
2012,08,16,02,27,18.70
2012,08,16,02,28,18.80
2012,08,16,02,29,18.80
2012,08,16,02,30,18.90
2012,08,16,02,32,19.00
2012,08,16,02,33,19.10
2012,08,16,02,34,19.20
2012,08,16,02,35,19.30
2012,08,16,02,37,19.30
2012,08,16,02,38,19.40
2012,08,16,02,39,19.40
2012,08,16,02,40,19.50
2012,08,16,02,42,19.50
2012,08,16,02,43,19.60
2012,08,16,02,44,19.60
2012,08,16,02,45,19.60
2012,08,16,02,47,19.70
2012,08,16,02,48,19.70
2012,08,16,02,49,19.70
2012,08,16,02,50,19.70
2012,08,16,02,51,19.70
2012,08,16,02,52,19.70
2012,08,16,02,53,19.60
2012,08,16,02,54,19.60
2012,08,16,02,55,19.60
2012,08,16,02,57,19.50
2012,08,16,02,58,19.40
2012,08,16,02,59,19.30
2012,08,16,03,00,19.30
2012,08,16,03,02,19.20
2012,08,16,03,03,19.10
2012,08,16,03,04,19.00
2012,08,16,03,05,18.90
2012,08,16,03,06,18.80
2012,08,16,03,07,18.80
2012,08,16,03,08,18.70
2012,08,16,03,10,18.60
2012,08,16,03,11,18.50
2012,08,16,03,12,18.40
2012,08,16,03,13,18.40
2012,08,16,03,14,18.40
2012,08,16,03,15,18.30
2012,08,16,03,16,18.30
2012,08,16,03,17,18.20
2012,08,16,03,19,18.20
2012,08,16,03,20,18.20
2012,08,16,03,23,18.10
2012,08,16,03,24,18.10
2012,08,16,03,25,18.10
2012,08,16,03,26,18.10
2012,08,16,03,27,18.10
2012,08,16,03,28,18.10
2012,08,16,03,29,18.10
2012,08,16,03,30,18.10
2012,08,16,03,31,18.20
2012,08,16,03,33,18.20
2012,08,16,03,34,18.20
2012,08,16,03,35,18.20
2012,08,16,03,36,18.20
2012,08,16,03,37,18.20
2012,08,16,03,38,18.20
2012,08,16,03,39,18.30
2012,08,16,03,40,18.30
2012,08,16,03,41,18.30
2012,08,16,03,42,18.30
2012,08,16,03,43,18.30
2012,08,16,03,44,18.30
2012,08,16,03,45,18.30
2012,08,16,03,46,18.30
2012,08,16,03,47,18.20
2012,08,16,03,49,18.20
2012,08,16,03,50,18.10
2012,08,16,03,51,18.10
2012,08,16,03,52,18.00
2012,08,16,03,53,17.90
2012,08,16,03,54,17.90
2012,08,16,03,55,17.80
2012,08,16,03,56,17.80
2012,08,16,03,58,17.70
2012,08,16,03,59,17.70
2012,08,16,04,00,17.70
2012,08,16,04,01,17.70
2012,08,16,04,02,17.70
2012,08,16,04,04,17.70
2012,08,16,04,05,17.60
2012,08,16,04,06,17.60
2012,08,16,04,07,17.50
2012,08,16,04,09,17.40
2012,08,16,04,10,17.30
2012,08,16,04,11,17.30
2012,08,16,04,12,17.20
2012,08,16,04,13,17.20
2012,08,16,04,14,17.20
2012,08,16,04,15,17.20
2012,08,16,04,16,17.10
2012,08,16,04,18,17.10
2012,08,16,04,19,17.00
2012,08,16,04,20,16.90
2012,08,16,04,21,16.90
2012,08,16,04,22,16.90
2012,08,16,04,24,16.80
2012,08,16,04,25,16.80
2012,08,16,04,26,16.80
2012,08,16,04,27,16.80
2012,08,16,04,28,16.80
2012,08,16,04,29,16.80
2012,08,16,04,30,16.80
2012,08,16,04,31,16.80
2012,08,16,04,33,16.80
2012,08,16,04,34,16.80
2012,08,16,04,35,16.80
2012,08,16,04,37,16.80
2012,08,16,04,38,16.90
2012,08,16,04,39,16.90
2012,08,16,04,40,16.90
2012,08,16,04,41,16.90
2012,08,16,04,42,16.90
2012,08,16,04,43,16.90
2012,08,16,04,44,16.90
2012,08,16,04,46,16.90
2012,08,16,04,47,16.90
2012,08,16,04,48,17.00
2012,08,16,04,49,17.00
2012,08,16,04,50,17.00
2012,08,16,04,51,17.00
2012,08,16,04,52,17.00
2012,08,16,04,53,16.90
2012,08,16,04,55,16.90
2012,08,16,04,56,16.90
2012,08,16,04,57,16.90
2012,08,16,04,58,16.90
2012,08,16,04,59,16.90
2012,08,16,05,00,16.90
2012,08,16,05,01,17.00
2012,08,16,05,02,17.00
2012,08,16,05,03,17.00
2012,08,16,05,04,17.00
2012,08,16,05,05,17.00
2012,08,16,05,06,16.90
2012,08,16,05,07,16.90
2012,08,16,05,09,17.00
2012,08,16,05,10,16.90
2012,08,16,05,11,16.90
2012,08,16,05,12,17.00
2012,08,16,05,14,17.00
2012,08,16,05,15,17.00
2012,08,16,05,16,17.10
2012,08,16,05,17,17.10
2012,08,16,05,19,17.10
2012,08,16,05,20,17.20
2012,08,16,05,21,17.30
2012,08,16,05,22,17.30
2012,08,16,05,23,17.30
2012,08,16,05,24,17.40
2012,08,16,05,25,17.40
2012,08,16,05,26,17.40
2012,08,16,05,27,17.40
2012,08,16,05,28,17.40
2012,08,16,05,29,17.30
2012,08,16,05,30,17.20
2012,08,16,05,31,17.20
2012,08,16,05,33,17.10
2012,08,16,05,34,17.10
2012,08,16,05,35,17.10
2012,08,16,05,36,17.10
2012,08,16,05,38,17.10
2012,08,16,05,39,17.10
2012,08,16,05,40,17.10
2012,08,16,05,41,17.10
2012,08,16,05,42,17.10
2012,08,16,05,44,17.00
2012,08,16,05,45,17.00
2012,08,16,05,46,16.90
2012,08,16,05,47,16.90
2012,08,16,05,48,16.90
2012,08,16,05,50,16.80
2012,08,16,05,51,16.80
2012,08,16,05,52,16.80
2012,08,16,05,54,16.70
2012,08,16,05,55,16.70
2012,08,16,05,56,16.70
2012,08,16,05,58,16.70
2012,08,16,05,59,16.70
2012,08,16,06,00,16.70
2012,08,16,06,02,16.70
2012,08,16,06,03,16.70
2012,08,16,06,04,16.80
2012,08,16,06,05,16.80
2012,08,16,06,07,16.80
2012,08,16,06,08,16.80
2012,08,16,06,09,16.90
2012,08,16,06,10,16.90
2012,08,16,06,12,16.90
2012,08,16,06,13,16.90
2012,08,16,06,14,16.80
2012,08,16,06,15,16.80
2012,08,16,06,16,16.80
2012,08,16,06,18,16.80
2012,08,16,06,19,16.80
2012,08,16,06,20,16.80
2012,08,16,06,21,16.80
2012,08,16,06,23,16.80
2012,08,16,06,24,16.80
2012,08,16,06,25,16.80
2012,08,16,06,26,16.80
2012,08,16,06,28,16.80
2012,08,16,06,29,16.80
2012,08,16,06,30,16.80
2012,08,16,06,31,16.80
2012,08,16,06,32,16.80
2012,08,16,06,34,16.80
2012,08,16,06,35,16.80
2012,08,16,06,36,16.80
2012,08,16,06,37,16.80
2012,08,16,06,39,16.80
2012,08,16,06,40,17.00
2012,08,16,06,41,17.00
2012,08,16,06,42,17.00
2012,08,16,06,43,17.10
2012,08,16,06,44,17.10
2012,08,16,06,45,17.10
2012,08,16,06,46,17.10
2012,08,16,06,48,17.10
2012,08,16,06,49,17.00
2012,08,16,06,50,17.00
2012,08,16,06,51,16.90
2012,08,16,06,52,16.90
2012,08,16,06,54,16.90
2012,08,16,06,55,16.90
2012,08,16,06,56,17.00
2012,08,16,06,57,16.90
2012,08,16,06,58,16.90
2012,08,16,06,59,16.90
2012,08,16,07,00,16.90
2012,08,16,07,01,16.90
2012,08,16,07,02,16.90
2012,08,16,07,04,17.00
2012,08,16,07,05,17.00
2012,08,16,07,06,17.00
2012,08,16,07,07,17.00
2012,08,16,07,08,17.00
2012,08,16,07,09,17.00
2012,08,16,07,10,16.90
2012,08,16,07,11,17.00
2012,08,16,07,13,17.00
2012,08,16,07,14,17.10
2012,08,16,07,15,17.10
2012,08,16,07,16,17.20
2012,08,16,07,18,17.30
2012,08,16,07,19,17.40
2012,08,16,07,20,17.60
2012,08,16,07,21,17.70
2012,08,16,07,23,17.70
2012,08,16,07,24,17.80
2012,08,16,07,25,17.90
2012,08,16,07,27,18.00
2012,08,16,07,28,18.10
2012,08,16,07,29,18.20
2012,08,16,07,30,18.30
2012,08,16,07,32,18.40
2012,08,16,07,33,18.70
2012,08,16,07,34,18.70
2012,08,16,07,35,18.80
2012,08,16,07,37,18.90
2012,08,16,07,38,19.00
2012,08,16,07,39,19.10
2012,08,16,07,41,19.10
2012,08,16,07,42,19.20
2012,08,16,07,43,19.20
2012,08,16,07,44,19.30
2012,08,16,07,46,19.30
2012,08,16,07,47,19.40
2012,08,16,07,48,19.40
2012,08,16,07,49,19.50
2012,08,16,07,51,19.60
2012,08,16,07,52,19.70
2012,08,16,07,53,19.70
2012,08,16,07,55,19.80
2012,08,16,07,56,20.00
2012,08,16,07,57,20.10
2012,08,16,07,58,20.20
2012,08,16,07,59,20.30
2012,08,16,08,00,20.30
2012,08,16,08,01,20.40
2012,08,16,08,02,20.50
2012,08,16,08,03,20.60
2012,08,16,08,05,20.70
2012,08,16,08,06,20.80
2012,08,16,08,07,20.80
2012,08,16,08,08,20.90
2012,08,16,08,09,20.90
2012,08,16,08,10,20.90
2012,08,16,08,12,21.00
2012,08,16,08,13,21.10
2012,08,16,08,14,21.10
2012,08,16,08,16,21.20
2012,08,16,08,17,21.30
2012,08,16,08,18,21.30
2012,08,16,08,19,21.40
2012,08,16,08,20,21.40
2012,08,16,08,22,21.40
2012,08,16,08,23,21.60
2012,08,16,08,24,21.60
2012,08,16,08,25,21.60
2012,08,16,08,27,21.60
2012,08,16,08,28,21.70
2012,08,16,08,29,21.70
2012,08,16,08,30,21.70
2012,08,16,08,31,21.70
2012,08,16,08,32,21.80
2012,08,16,08,33,21.80
2012,08,16,08,34,21.80
2012,08,16,08,36,21.80
2012,08,16,08,37,21.90
2012,08,16,08,38,21.90
2012,08,16,08,40,21.90
2012,08,16,08,41,21.90
2012,08,16,08,42,22.00
2012,08,16,08,44,22.00
2012,08,16,08,45,22.00
2012,08,16,08,46,22.00
2012,08,16,08,47,22.10
2012,08,16,08,49,22.10
2012,08,16,08,50,22.10
2012,08,16,08,51,22.10
2012,08,16,08,52,22.20
2012,08,16,08,54,22.20
2012,08,16,08,55,22.20
2012,08,16,08,56,22.20
2012,08,16,08,57,22.20
2012,08,16,08,59,22.20
2012,08,16,09,00,22.20
2012,08,16,09,01,22.20
2012,08,16,09,02,22.20
2012,08,16,09,04,22.20
2012,08,16,09,05,22.20
2012,08,16,09,06,22.20
2012,08,16,09,08,22.20
2012,08,16,09,09,22.30
2012,08,16,09,10,22.30
2012,08,16,09,11,22.40
2012,08,16,09,13,22.40
2012,08,16,09,14,22.50
2012,08,16,09,15,22.50
2012,08,16,09,16,22.60
2012,08,16,09,18,22.60
2012,08,16,09,19,22.50
2012,08,16,09,20,22.40
2012,08,16,09,21,22.40
2012,08,16,09,22,22.40
2012,08,16,09,23,22.40
2012,08,16,09,24,22.40
2012,08,16,09,26,22.50
2012,08,16,09,27,22.60
2012,08,16,09,28,22.60
2012,08,16,09,29,22.60
2012,08,16,09,31,22.60
2012,08,16,09,32,22.60
2012,08,16,09,33,22.60
2012,08,16,09,35,22.60
2012,08,16,09,36,22.60
2012,08,16,09,37,22.60
2012,08,16,09,38,22.60
2012,08,16,09,40,22.60
2012,08,16,09,41,22.60
2012,08,16,09,42,22.60
2012,08,16,09,43,22.60
2012,08,16,09,45,22.60
2012,08,16,09,46,22.70
2012,08,16,09,47,22.70
2012,08,16,09,48,22.70
2012,08,16,09,49,22.80
2012,08,16,09,51,22.80
2012,08,16,09,52,22.90
2012,08,16,09,53,23.00
2012,08,16,09,54,23.10
2012,08,16,09,56,23.10
2012,08,16,09,57,23.10
2012,08,16,09,58,23.20
2012,08,16,09,59,23.20
2012,08,16,10,01,23.10
2012,08,16,10,02,23.10
2012,08,16,10,03,23.10
2012,08,16,10,05,23.20
2012,08,16,10,06,23.20
2012,08,16,10,07,23.30
2012,08,16,10,08,23.30
2012,08,16,10,09,23.30
2012,08,16,10,10,23.40
2012,08,16,10,11,23.40
2012,08,16,10,13,23.40
2012,08,16,10,14,23.40
2012,08,16,10,15,23.40
2012,08,16,10,17,23.40
2012,08,16,10,18,23.40
2012,08,16,10,19,23.40
2012,08,16,10,20,23.40
2012,08,16,10,22,23.40
2012,08,16,10,23,23.40
2012,08,16,10,24,23.50
2012,08,16,10,25,23.50
2012,08,16,10,27,23.60
2012,08,16,10,28,23.60
2012,08,16,10,29,23.60
2012,08,16,10,30,23.70
2012,08,16,10,32,23.70
2012,08,16,10,33,23.70
2012,08,16,10,34,23.70
2012,08,16,10,35,23.70
2012,08,16,10,37,23.70
2012,08,16,10,38,23.80
2012,08,16,10,39,23.80
2012,08,16,10,40,23.80
2012,08,16,10,42,23.80
2012,08,16,10,43,23.90
2012,08,16,10,44,23.80
2012,08,16,10,45,23.80
2012,08,16,10,47,23.80
2012,08,16,10,48,23.80
2012,08,16,10,49,23.80
2012,08,16,10,50,23.90
2012,08,16,10,51,23.90
2012,08,16,10,52,23.90
2012,08,16,10,53,24.00
2012,08,16,10,54,24.10
2012,08,16,10,56,24.10
2012,08,16,10,57,24.10
2012,08,16,10,58,24.20
2012,08,16,10,59,24.20
2012,08,16,11,00,24.20
2012,08,16,11,01,24.10
2012,08,16,11,02,24.10
2012,08,16,11,03,24.10
2012,08,16,11,04,24.20
2012,08,16,11,05,24.20
2012,08,16,11,06,24.20
2012,08,16,11,07,24.30
2012,08,16,11,08,24.30
2012,08,16,11,09,24.40
2012,08,16,11,11,24.40
2012,08,16,11,12,24.40
2012,08,16,11,13,24.50
2012,08,16,11,15,24.60
2012,08,16,11,16,24.70
2012,08,16,11,17,24.70
2012,08,16,11,18,24.70
2012,08,16,11,19,24.80
2012,08,16,11,20,24.80
2012,08,16,11,21,24.80
2012,08,16,11,22,24.80
2012,08,16,11,23,24.90
2012,08,16,11,24,24.90
2012,08,16,11,25,24.90
2012,08,16,11,26,24.90
2012,08,16,11,27,25.10
2012,08,16,11,28,25.10
2012,08,16,11,29,25.10
2012,08,16,11,30,25.10
2012,08,16,11,31,25.10
2012,08,16,11,32,25.10
2012,08,16,11,33,25.20
2012,08,16,11,34,25.30
2012,08,16,11,36,25.30
2012,08,16,11,37,25.40
2012,08,16,11,38,25.50
2012,08,16,11,39,25.50
2012,08,16,11,41,25.40
2012,08,16,11,42,25.40
2012,08,16,11,43,25.40
2012,08,16,11,44,25.40
2012,08,16,11,46,25.40
2012,08,16,11,47,25.60
2012,08,16,11,48,25.60
2012,08,16,11,50,25.70
2012,08,16,11,51,25.80
2012,08,16,11,52,25.80
2012,08,16,11,53,25.80
2012,08,16,11,55,25.90
2012,08,16,11,56,25.90
2012,08,16,11,57,25.90
2012,08,16,11,58,25.90
2012,08,16,11,59,25.90
2012,08,16,12,00,25.90
2012,08,16,12,01,26.00
2012,08,16,12,02,26.00
2012,08,16,12,03,25.90
2012,08,16,12,05,25.90
2012,08,16,12,06,25.90
2012,08,16,12,07,25.90
2012,08,16,12,08,26.00
2012,08,16,12,09,26.10
2012,08,16,12,11,26.10
2012,08,16,12,12,26.00
2012,08,16,12,13,25.90
2012,08,16,12,14,26.00
2012,08,16,12,15,26.00
2012,08,16,12,16,26.00
2012,08,16,12,17,26.10
2012,08,16,12,18,26.10
2012,08,16,12,20,26.20
2012,08,16,12,21,26.20
2012,08,16,12,22,26.20
2012,08,16,12,24,26.20
2012,08,16,12,25,26.20
2012,08,16,12,26,26.20
2012,08,16,12,27,26.30
2012,08,16,12,29,26.40
2012,08,16,12,30,26.50
2012,08,16,12,31,26.50
2012,08,16,12,32,26.50
2012,08,16,12,33,26.40
2012,08,16,12,34,26.40
2012,08,16,12,35,26.40
2012,08,16,12,37,26.30
2012,08,16,12,38,26.30
2012,08,16,12,39,26.40
2012,08,16,12,40,26.40
2012,08,16,12,42,26.40
2012,08,16,12,43,26.40
2012,08,16,12,44,26.50
2012,08,16,12,45,26.50
2012,08,16,12,47,26.60
2012,08,16,12,48,26.70
2012,08,16,12,49,26.80
2012,08,16,12,50,26.80
2012,08,16,12,52,26.80
2012,08,16,12,53,26.90
2012,08,16,12,54,27.00
2012,08,16,12,55,27.00
2012,08,16,12,57,27.10
2012,08,16,12,58,27.10
2012,08,16,12,59,27.20
2012,08,16,13,00,27.20
2012,08,16,13,02,27.20
2012,08,16,13,03,27.30
2012,08,16,13,04,27.30
2012,08,16,13,05,27.30
2012,08,16,13,06,27.30
2012,08,16,13,07,27.20
2012,08,16,13,08,27.20
2012,08,16,13,09,27.20
2012,08,16,13,11,27.30
2012,08,16,13,12,27.30
2012,08,16,13,13,27.40
2012,08,16,13,15,27.40
2012,08,16,13,16,27.40
2012,08,16,13,17,27.40
2012,08,16,13,18,27.30
2012,08,16,13,19,27.30
2012,08,16,13,20,27.20
2012,08,16,13,21,27.20
2012,08,16,13,22,27.30
2012,08,16,13,23,27.30
2012,08,16,13,24,27.30
2012,08,16,13,25,27.30
2012,08,16,13,26,27.30
2012,08,16,13,27,27.20
2012,08,16,13,28,27.20
2012,08,16,13,30,27.20
2012,08,16,13,31,27.20
2012,08,16,13,32,27.20
2012,08,16,13,33,27.20
2012,08,16,13,34,27.30
2012,08,16,13,35,27.30
2012,08,16,13,36,27.30
2012,08,16,13,37,27.30
2012,08,16,13,39,27.40
2012,08,16,13,40,27.60
2012,08,16,13,41,27.60
2012,08,16,13,43,27.70
2012,08,16,13,44,27.60
2012,08,16,13,45,27.60
2012,08,16,13,46,27.60
2012,08,16,13,48,27.70
2012,08,16,13,49,27.70
2012,08,16,13,50,27.80
2012,08,16,13,51,27.90
2012,08,16,13,53,28.00
2012,08,16,13,54,28.10
2012,08,16,13,55,28.10
2012,08,16,13,57,28.00
2012,08,16,13,58,27.90
2012,08,16,13,59,27.80
2012,08,16,14,00,27.80
2012,08,16,14,01,27.90
2012,08,16,14,03,27.90
2012,08,16,14,04,27.90
2012,08,16,14,05,27.90
2012,08,16,14,07,27.90
2012,08,16,14,08,27.90
2012,08,16,14,09,28.00
2012,08,16,14,10,28.00
2012,08,16,14,12,28.10
2012,08,16,14,13,28.10
2012,08,16,14,14,28.10
2012,08,16,14,15,28.10
2012,08,16,14,16,28.10
2012,08,16,14,17,28.00
2012,08,16,14,18,27.90
2012,08,16,14,19,28.00
2012,08,16,14,20,28.10
2012,08,16,14,22,28.10
2012,08,16,14,23,28.10
2012,08,16,14,24,28.10
2012,08,16,14,25,28.10
2012,08,16,14,27,28.10
2012,08,16,14,28,28.10
2012,08,16,14,29,28.20
2012,08,16,14,30,28.30
2012,08,16,14,32,28.30
2012,08,16,14,33,28.40
2012,08,16,14,34,28.40
2012,08,16,14,35,28.40
2012,08,16,14,37,28.40
2012,08,16,14,38,28.30
2012,08,16,14,39,28.30
2012,08,16,14,40,28.30
2012,08,16,14,41,28.20
2012,08,16,14,42,28.30
2012,08,16,14,43,28.30
2012,08,16,14,44,28.30
2012,08,16,14,46,28.20
2012,08,16,14,47,28.20
2012,08,16,14,48,28.30
2012,08,16,14,49,28.30
2012,08,16,14,51,28.30
2012,08,16,14,52,28.40
2012,08,16,14,53,28.40
2012,08,16,14,55,28.40
2012,08,16,14,56,28.40
2012,08,16,14,57,28.40
2012,08,16,14,58,28.40
2012,08,16,14,59,28.40
2012,08,16,15,00,28.50
2012,08,16,15,01,28.60
2012,08,16,15,02,28.60
2012,08,16,15,03,28.60
2012,08,16,15,05,28.70
2012,08,16,15,06,28.80
2012,08,16,15,07,28.80
2012,08,16,15,08,28.80
2012,08,16,15,09,28.80
2012,08,16,15,10,28.80
2012,08,16,15,11,28.80
2012,08,16,15,12,28.80
2012,08,16,15,13,28.70
2012,08,16,15,14,28.70
2012,08,16,15,16,28.70
2012,08,16,15,17,28.70
2012,08,16,15,18,28.80
2012,08,16,15,19,28.80
2012,08,16,15,20,28.80
2012,08,16,15,21,28.80
2012,08,16,15,22,28.90
2012,08,16,15,23,28.80
2012,08,16,15,24,28.80
2012,08,16,15,25,28.80
2012,08,16,15,27,28.80
2012,08,16,15,28,28.90
2012,08,16,15,29,28.90
2012,08,16,15,30,29.00
2012,08,16,15,32,29.10
2012,08,16,15,33,29.20
2012,08,16,15,34,29.20
2012,08,16,15,35,29.30
2012,08,16,15,37,29.30
2012,08,16,15,38,29.40
2012,08,16,15,39,29.40
2012,08,16,15,40,29.40
2012,08,16,15,42,29.40
2012,08,16,15,43,29.40
2012,08,16,15,44,29.40
2012,08,16,15,45,29.40
2012,08,16,15,47,29.40
2012,08,16,15,48,29.30
2012,08,16,15,49,29.30
2012,08,16,15,50,29.30
2012,08,16,15,52,29.30
2012,08,16,15,53,29.40
2012,08,16,15,54,29.40
2012,08,16,15,55,29.40
2012,08,16,15,57,29.40
2012,08,16,15,58,29.30
2012,08,16,15,59,29.20
2012,08,16,16,00,29.20
2012,08,16,16,01,29.20
2012,08,16,16,02,29.30
2012,08,16,16,03,29.30
2012,08,16,16,04,29.30
2012,08,16,16,06,29.30
2012,08,16,16,07,29.30
2012,08,16,16,08,29.40
2012,08,16,16,09,29.40
2012,08,16,16,11,29.50
2012,08,16,16,12,29.60
2012,08,16,16,13,29.70
2012,08,16,16,15,29.80
2012,08,16,16,16,29.90
2012,08,16,16,17,30.10
2012,08,16,16,18,30.10
2012,08,16,16,19,30.10
2012,08,16,16,21,30.10
2012,08,16,16,22,30.00
2012,08,16,16,23,29.90
2012,08,16,16,24,30.00
2012,08,16,16,26,30.10
2012,08,16,16,27,30.10
2012,08,16,16,28,30.10
2012,08,16,16,29,30.10
2012,08,16,16,31,30.00
2012,08,16,16,32,29.90
2012,08,16,16,33,29.90
2012,08,16,16,34,29.90
2012,08,16,16,35,29.90
2012,08,16,16,36,30.00
2012,08,16,16,37,30.10
2012,08,16,16,38,30.20
2012,08,16,16,39,30.20
2012,08,16,16,40,30.30
2012,08,16,16,41,30.30
2012,08,16,16,42,30.30
2012,08,16,16,43,30.30
2012,08,16,16,44,30.20
2012,08,16,16,46,30.20
2012,08,16,16,47,30.20
2012,08,16,16,48,30.20
2012,08,16,16,49,30.20
2012,08,16,16,51,30.20
2012,08,16,16,52,30.20
2012,08,16,16,53,30.10
2012,08,16,16,54,30.10
2012,08,16,16,56,30.00
2012,08,16,16,57,29.90
2012,08,16,16,58,29.90
2012,08,16,16,59,29.90
2012,08,16,17,01,30.00
2012,08,16,17,02,30.10
2012,08,16,17,03,30.10
2012,08,16,17,04,30.10
2012,08,16,17,06,30.10
2012,08,16,17,07,30.10
2012,08,16,17,08,30.10
2012,08,16,17,09,30.10
2012,08,16,17,10,30.10
2012,08,16,17,12,30.20
2012,08,16,17,13,30.20
2012,08,16,17,14,30.30
2012,08,16,17,15,30.40
2012,08,16,17,17,30.40
2012,08,16,17,18,30.50
2012,08,16,17,19,30.60
2012,08,16,17,20,30.60
2012,08,16,17,21,30.60
2012,08,16,17,23,30.60
2012,08,16,17,24,30.50
2012,08,16,17,25,30.60
2012,08,16,17,27,30.60
2012,08,16,17,28,30.40
2012,08,16,17,29,30.30
2012,08,16,17,30,30.30
2012,08,16,17,31,30.20
2012,08,16,17,32,30.20
2012,08,16,17,33,30.10
2012,08,16,17,34,30.10
2012,08,16,17,35,30.10
2012,08,16,17,37,29.90
2012,08,16,17,38,29.90
2012,08,16,17,39,29.90
2012,08,16,17,40,29.90
2012,08,16,17,42,29.90
2012,08,16,17,43,30.00
2012,08,16,17,44,30.10
2012,08,16,17,45,30.10
2012,08,16,17,46,30.20
2012,08,16,17,47,30.20
2012,08,16,17,48,30.30
2012,08,16,17,50,30.30
2012,08,16,17,51,30.40
2012,08,16,17,52,30.40
2012,08,16,17,53,30.50
2012,08,16,17,54,30.60
2012,08,16,17,56,30.60
2012,08,16,17,57,30.60
2012,08,16,17,58,30.60
2012,08,16,17,59,30.60
2012,08,16,18,00,30.60
2012,08,16,18,01,30.60
2012,08,16,18,02,30.60
2012,08,16,18,03,30.60
2012,08,16,18,05,30.60
2012,08,16,18,06,30.60
2012,08,16,18,07,30.70
2012,08,16,18,09,30.70
2012,08,16,18,10,30.70
2012,08,16,18,11,30.70
2012,08,16,18,12,30.70
2012,08,16,18,13,30.70
2012,08,16,18,14,30.70
2012,08,16,18,15,30.70
2012,08,16,18,16,30.80
2012,08,16,18,17,30.80
2012,08,16,18,19,30.90
2012,08,16,18,20,31.10
2012,08,16,18,21,31.10
2012,08,16,18,22,31.10
2012,08,16,18,23,31.00
2012,08,16,18,24,30.90
2012,08,16,18,25,30.90
2012,08,16,18,27,30.90
2012,08,16,18,28,30.90
2012,08,16,18,29,30.90
2012,08,16,18,30,30.90
2012,08,16,18,32,31.00
2012,08,16,18,33,31.00
2012,08,16,18,34,31.00
2012,08,16,18,35,30.90
2012,08,16,18,36,30.90
2012,08,16,18,37,30.90
2012,08,16,18,38,30.80
2012,08,16,18,39,30.90
2012,08,16,18,41,30.90
2012,08,16,18,42,30.90
2012,08,16,18,43,30.90
2012,08,16,18,44,30.90
2012,08,16,18,46,30.90
2012,08,16,18,47,30.80
2012,08,16,18,48,30.80
2012,08,16,18,49,30.80
2012,08,16,18,51,30.80
2012,08,16,18,52,30.90
2012,08,16,18,53,30.90
2012,08,16,18,54,31.10
2012,08,16,18,56,31.10
2012,08,16,18,57,31.10
2012,08,16,18,58,31.00
2012,08,16,18,59,30.90
2012,08,16,19,01,30.90
2012,08,16,19,02,30.90
2012,08,16,19,03,30.80
2012,08,16,19,04,30.80
2012,08,16,19,06,30.80
2012,08,16,19,07,30.70
2012,08,16,19,08,30.60
2012,08,16,19,09,30.40
2012,08,16,19,11,30.30
2012,08,16,19,12,30.20
2012,08,16,19,13,30.10
2012,08,16,19,14,30.10
2012,08,16,19,16,29.90
2012,08,16,19,17,29.80
2012,08,16,19,18,29.80
2012,08,16,19,19,29.70
2012,08,16,19,21,29.70
2012,08,16,19,22,29.70
2012,08,16,19,23,29.60
2012,08,16,19,24,29.60
2012,08,16,19,26,29.60
2012,08,16,19,27,29.40
2012,08,16,19,28,29.30
2012,08,16,19,29,29.20
2012,08,16,19,31,29.20
2012,08,16,19,32,29.00
2012,08,16,19,33,28.90
2012,08,16,19,34,28.80
2012,08,16,19,36,28.80
2012,08,16,19,37,28.60
2012,08,16,19,38,28.50
2012,08,16,19,39,28.40
2012,08,16,19,41,28.30
2012,08,16,19,42,28.10
2012,08,16,19,43,28.00
2012,08,16,19,44,27.80
2012,08,16,19,46,27.70
2012,08,16,19,47,27.60
2012,08,16,19,48,27.50
2012,08,16,19,50,27.40
2012,08,16,19,51,27.30
2012,08,16,19,52,27.20
2012,08,16,19,54,27.10
2012,08,16,19,55,26.90
2012,08,16,19,56,26.80
2012,08,16,19,57,26.80
2012,08,16,19,59,26.70
2012,08,16,20,00,26.60
2012,08,16,20,01,26.60
2012,08,16,20,02,26.50
2012,08,16,20,03,26.40
2012,08,16,20,05,26.40
2012,08,16,20,06,26.40
2012,08,16,20,07,26.30
2012,08,16,20,09,26.30
2012,08,16,20,10,26.20
2012,08,16,20,11,26.20
2012,08,16,20,12,26.20
2012,08,16,20,13,26.10
2012,08,16,20,15,26.10
2012,08,16,20,16,26.00
2012,08,16,20,17,25.90
2012,08,16,20,18,25.90
2012,08,16,20,19,25.90
2012,08,16,20,21,25.80
2012,08,16,20,22,25.80
2012,08,16,20,23,25.70
2012,08,16,20,24,25.70
2012,08,16,20,25,25.60
2012,08,16,20,26,25.60
2012,08,16,20,27,25.60
2012,08,16,20,28,25.50
2012,08,16,20,30,25.40
2012,08,16,20,31,25.30
2012,08,16,20,32,25.30
2012,08,16,20,33,25.30
2012,08,16,20,35,25.20
2012,08,16,20,36,25.20
2012,08,16,20,37,25.20
2012,08,16,20,38,25.20
2012,08,16,20,40,25.10
2012,08,16,20,41,25.10